Regional Weather Roundup
Issued by NWS

Home | Current Version | Previous Version | Text Only | Print | Product List | Glossary Off
Versions: 1 2 3 4 5 6 7 8 9 10 11 12 13 14 15 16 17 18 19 20 21 22 23 24 25 26 27 28 29 30 31 32 33 34 35 36 37 38 39 40 41 42 43 44 45 46 47 48 49 50

000
ASUS43 KFSD 241402
RWRSD

WEATHER ROUNDUP FOR SOUTH DAKOTA
NATIONAL WEATHER SERVICE SIOUX FALLS SD
800 AM CST FRI FEB 24 2017

NOTE: "FAIR" INDICATES FEW OR NO CLOUDS BELOW 12,000 FEET WITH NO
SIGNIFICANT WEATHER AND/OR OBSTRUCTIONS TO VISIBILITY.


SDZ001>005-009-010-012>017-241500-
NORTHWEST AND NORTH CENTRAL SOUTH DAKOTA

CITY           SKY/WX    TMP DP  RH WIND       PRES   REMARKS
BUFFALO          N/A     14   9  80 E5        29.99R WCI   6
FAITH            N/A     16  14  92 N5        30.09R WCI   9
MOBRIDGE       CLOUDY    18  12  77 NW6       30.08R WCI  10
$$

SDZ012>016-024>037-041>051-057-063-072>074-241500-
SOUTHWEST AND SOUTH CENTRAL SOUTH DAKOTA

CITY           SKY/WX    TMP DP  RH WIND       PRES   REMARKS
RAPID CTY ARPT CLOUDY    17  13  84 N10       30.05R WCI   5
PIERRE         CLOUDY    20  14  77 N12       30.09R WCI   8
CUSTER         LGT SNOW  14  10  84 NE5       29.88R FOG     WCI   6
ELLSWORTH AFB  CLOUDY    17  15  92 NE7       30.04  WCI   8
PHILIP         CLOUDY    21  14  74 NE13      30.10R WCI   9
PINE RIDGE     LGT SNOW  21  18  88 NE13      30.01R FOG     WCI   9
SPEARFISH      MOCLDY    16  14  93 NE6       30.01R WCI   7
WINNER         PTSUNNY   20  13  74 N15       30.04R WCI   6
$$

SDZ004>011-016>023-039-040-241500-
NORTHEAST SOUTH DAKOTA

CITY           SKY/WX    TMP DP  RH WIND       PRES   REMARKS
ABERDEEN       CLOUDY    19  12  74 N16G25    30.08R WCI   4
WATERTOWN      CLOUDY    18  10  71 N24G30    29.96R WCI   0
BROOKINGS      CLOUDY    19  12  74 N22G30    29.91R WCI   2
SISSETON         N/A     19  13  77 N22       30.05R WCI   2
$$

SDZ017-020-022-023-036>040-048>070-241500-
SOUTHEAST SOUTH DAKOTA

CITY           SKY/WX    TMP DP  RH WIND       PRES   REMARKS
SIOUX FALLS    CLOUDY    21  15  78 N24G33    29.90R WCI   4
HURON          MOCLDY    20  13  74 N21G28    30.03R WCI   4
CHAMBERLAIN    CLOUDY    23  15  71 N20G25    30.04R WCI   8
MITCHELL       CLOUDY    22  15  75 N21       30.00R WCI   6
YANKTON        CLOUDY    21  16  79 N20       29.93R WCI   6
$$

ABBREVIATIONS USED IN REMARKS
   TC - TEMPERATURE IN CELSIUS
  WCI - WIND CHILL INDEX
   HX - HEAT INDEX
  VSB - VISIBILITY




USA.gov is the U.S. government's official web portal to all federal, state and local government web resources and services.